Oxford, NC

6:31 AM EDT on September 15, 2019 (GMT -0400)
Henderson-Oxford

Weather History for KHNZ - July, 2019

Change the Weather History Date:

Friday, July 12, 2019

  Actual Average (KTDF) Record (KTDF)
Temperature  
Mean Temperature 78 °F -  
Max Temperature 88 °F 88 °F 96 °F (1966)
Min Temperature 69 °F 65 °F 35 °F (2008)
Cooling Degree Days 14    
Growing Degree Days 28 (Base 50)    
Moisture  
Dew Point 70 °F    
Average Humidity 77    
Maximum Humidity 95    
Minimum Humidity 52    
Precipitation  
Precipitation 0.01 in - - ()
Sea Level Pressure  
Sea Level Pressure 29.89 in    
Wind  
Wind Speed 5 mph (SW)    
Max Wind Speed 9 mph    
Max Gust Speed -    
Visibility 10 miles    
Events Rain    
Averages and records for this station are not official NWS values.
T = Trace of Precipitation, MM = Missing Value Source: NWS Daily Summary

Daily Weather History Graph

Daily Weather History Graph

Search for Another Location

Airport or City:

Astronomy

Jul. 12, 2019 Rise Set
Actual Time 6:05 AM EDT 8:33 PM EDT
Civil Twilight 5:36 AM EDT 9:03 PM EDT
Nautical Twilight 4:59 AM EDT 9:39 PM EDT
Astronomical Twilight 4:18 AM EDT 10:20 PM EDT
Moon 4:52 PM EDT (7/12) 2:44 AM EDT (7/12)
Length of Visible Light 15h 27m
Length of Day
14h 27m
Waxing Gibbous, 82% of the Moon is Illuminated
Jul 12
Waxing Gibbous
Jul 16
Full
Jul 24
Last Quarter
Jul 31
New
Aug 7
First Quarter

Hourly Weather History & Observations

Time (EDT) Temp. Heat Index Dew Point Humidity Pressure Visibility Wind Dir Wind Speed Gust Speed Precip Events Conditions
12:15 AM 72.5 °F - 68.9 °F 88% 29.89 in 10.0 mi SSW 4.6 mph - N/A   Scattered Clouds
12:35 AM 71.8 °F - 68.9 °F 91% 29.88 in 10.0 mi South 3.5 mph - 0.01 in   Clear
12:55 AM 71.8 °F - 68.9 °F 91% 29.86 in 10.0 mi South 6.9 mph - 0.01 in   Clear
1:15 AM 71.8 °F - 69.1 °F 91% 29.86 in 10.0 mi SSW 4.6 mph - N/A   Clear
1:35 AM 71.6 °F - 69.3 °F 92% 29.85 in 10.0 mi South 5.8 mph - N/A   Clear
1:55 AM 71.6 °F - 69.3 °F 92% 29.85 in 10.0 mi SSW 6.9 mph - N/A   Clear
2:15 AM 71.4 °F - 69.3 °F 93% 29.85 in 10.0 mi WSW 4.6 mph - N/A   Clear
2:35 AM 70.9 °F - 69.1 °F 94% 29.84 in 10.0 mi SSW 5.8 mph - N/A   Clear
2:55 AM 70.9 °F - 68.9 °F 93% 29.85 in 10.0 mi SW 6.9 mph - N/A   Clear
3:15 AM 70.7 °F - 68.7 °F 93% 29.84 in 10.0 mi SSW 6.9 mph - N/A   Clear
3:35 AM 70.7 °F - 68.4 °F 92% 29.85 in 10.0 mi SSW 4.6 mph - N/A   Clear
3:55 AM 70.7 °F - 68.4 °F 92% 29.86 in 10.0 mi SSW 8.1 mph - N/A   Clear
4:15 AM 70.9 °F - 68.4 °F 92% 29.86 in 10.0 mi SW 6.9 mph - N/A   Clear
4:35 AM 70.9 °F - 68.5 °F 92% 29.86 in 10.0 mi SSW 8.1 mph - N/A   Clear
4:55 AM 70.7 °F - 68.2 °F 92% 29.86 in 10.0 mi SW 4.6 mph - N/A   Clear
5:15 AM 70.0 °F - 68.0 °F 93% 29.86 in 10.0 mi WSW 4.6 mph - N/A   Clear
5:35 AM 70.0 °F - 68.0 °F 93% 29.85 in 10.0 mi West 3.5 mph - N/A   Clear
5:55 AM 69.8 °F - 67.6 °F 93% 29.86 in 10.0 mi Calm Calm - N/A   Clear
6:15 AM 69.8 °F - 67.6 °F 93% 29.86 in 10.0 mi Calm Calm - N/A   Clear
6:35 AM 69.8 °F - 67.8 °F 93% 29.86 in 10.0 mi South 3.5 mph - N/A   Clear
6:55 AM 70.0 °F - 68.2 °F 94% 29.88 in 10.0 mi South 6.9 mph - N/A   Clear
7:15 AM 70.2 °F - 68.5 °F 95% 29.89 in 10.0 mi SSW 6.9 mph - N/A   Clear
7:35 AM 70.7 °F - 68.9 °F 94% 29.90 in 10.0 mi South 6.9 mph - N/A   Scattered Clouds
7:55 AM 71.8 °F - 69.3 °F 92% 29.90 in 10.0 mi SSW 6.9 mph - N/A   Scattered Clouds
8:15 AM 72.7 °F - 69.6 °F 90% 29.91 in 10.0 mi SSW 9.2 mph - N/A   Clear
8:35 AM 73.4 °F - 69.4 °F 87% 29.91 in 10.0 mi SSW 9.2 mph - N/A   Clear
8:55 AM 73.9 °F - 69.6 °F 86% 29.91 in 10.0 mi SW 9.2 mph - N/A   Clear
9:15 AM 76.1 °F - 69.8 °F 81% 29.91 in 10.0 mi WSW 6.9 mph - N/A   Clear
9:35 AM 77.4 °F - 70.0 °F 78% 29.91 in 10.0 mi WSW 9.2 mph - N/A   Clear
9:55 AM 78.1 °F - 69.6 °F 75% 29.91 in 10.0 mi WSW 9.2 mph - N/A   Clear
10:15 AM 78.1 °F - 70.2 °F 77% 29.91 in 10.0 mi SW 5.8 mph - N/A   Clear
10:35 AM 81.0 °F 84.7 °F 70.7 °F 71% 29.91 in 10.0 mi West 6.9 mph - N/A   Clear
10:55 AM 81.0 °F 84.6 °F 70.2 °F 70% 29.91 in 10.0 mi SW 5.8 mph - N/A   Clear
11:15 AM 81.7 °F 85.4 °F 70.3 °F 68% 29.91 in 10.0 mi WSW 5.8 mph - N/A   Clear
11:35 AM 82.4 °F 86.1 °F 69.4 °F 65% 29.91 in 10.0 mi WSW 6.9 mph - N/A   Clear
11:55 AM 83.7 °F 88.0 °F 70.2 °F 64% 29.90 in 10.0 mi SW 5.8 mph - N/A   Scattered Clouds
12:15 PM 83.5 °F 87.7 °F 70.3 °F 64% 29.91 in 10.0 mi Calm Calm - N/A   Clear
12:35 PM 84.7 °F 89.4 °F 70.5 °F 62% 29.91 in 10.0 mi WSW 5.8 mph - N/A   Scattered Clouds
12:55 PM 84.9 °F 89.7 °F 70.5 °F 62% 29.90 in 10.0 mi West 5.8 mph - N/A   Unknown
1:15 PM 85.8 °F 90.8 °F 70.3 °F 60% 29.90 in 10.0 mi WSW 8.1 mph - N/A   Unknown
1:35 PM 86.4 °F 91.4 °F 70.5 °F 59% 29.90 in 10.0 mi WNW 5.8 mph - N/A   Unknown
1:55 PM 85.6 °F 89.7 °F 69.1 °F 58% 29.90 in 10.0 mi Calm Calm - N/A   Unknown
2:35 PM 87.4 °F 92.3 °F 70.2 °F 56% 29.89 in 10.0 mi Calm Calm - N/A   Unknown
2:55 PM 87.1 °F 91.3 °F 68.9 °F 55% 29.89 in 10.0 mi WNW 6.9 mph - N/A   Unknown
3:15 PM 87.4 °F 91.9 °F 69.4 °F 55% 29.89 in 10.0 mi NW 5.8 mph - N/A   Scattered Clouds
3:35 PM 86.5 °F 90.0 °F 68.2 °F 54% 29.88 in 10.0 mi NW 6.9 mph - N/A   Scattered Clouds
3:55 PM 87.1 °F 91.3 °F 69.1 °F 55% 29.88 in 10.0 mi West 5.8 mph - N/A   Unknown
4:15 PM 88.2 °F 92.9 °F 69.6 °F 54% 29.88 in 10.0 mi SW 4.6 mph - N/A   Unknown
4:35 PM 87.6 °F 91.9 °F 69.1 °F 54% 29.87 in 10.0 mi Calm Calm - N/A   Unknown
4:55 PM 88.0 °F 91.8 °F 68.4 °F 52% 29.87 in 10.0 mi WNW 4.6 mph - N/A   Unknown
5:15 PM 88.2 °F 92.1 °F 68.7 °F 52% 29.87 in 10.0 mi Calm Calm - N/A   Clear
5:35 PM 88.2 °F 92.5 °F 69.3 °F 53% 29.87 in 10.0 mi WSW 3.5 mph - N/A   Clear
5:55 PM 87.3 °F 91.6 °F 69.1 °F 55% 29.87 in 10.0 mi WSW 3.5 mph - N/A   Clear
6:15 PM 87.6 °F 91.9 °F 69.1 °F 54% 29.86 in 10.0 mi West 3.5 mph - N/A   Clear
6:35 PM 86.2 °F 90.0 °F 68.9 °F 56% 29.86 in 10.0 mi SW 3.5 mph - N/A   Clear
6:55 PM 85.1 °F 90.8 °F 71.8 °F 64% 29.88 in 10.0 mi South 4.6 mph - N/A   Clear
7:15 PM 83.1 °F 88.1 °F 71.6 °F 68% 29.89 in 10.0 mi WSW 4.6 mph - N/A Rain Light Rain
7:35 PM 83.1 °F 88.6 °F 72.3 °F 70% 29.89 in 10.0 mi SW 3.5 mph - N/A   Mostly Cloudy
7:55 PM 82.9 °F 88.5 °F 72.5 °F 71% 29.89 in 10.0 mi SW 3.5 mph - N/A   Scattered Clouds
8:15 PM 81.5 °F 86.1 °F 72.0 °F 73% 29.90 in 10.0 mi South 3.5 mph - N/A   Clear
8:55 PM 79.0 °F - 72.5 °F 80% 29.91 in 10.0 mi Calm Calm - N/A   Clear
9:15 PM 77.7 °F - 72.5 °F 84% 29.91 in 10.0 mi Calm Calm - N/A   Clear
9:35 PM 76.1 °F - 72.5 °F 89% 29.91 in 10.0 mi Calm Calm - N/A   Clear
9:55 PM 76.1 °F - 71.8 °F 86% 29.92 in 10.0 mi Calm Calm - N/A   Clear
10:15 PM 76.5 °F - 71.8 °F 85% 29.93 in 10.0 mi Calm Calm - N/A   Clear
10:35 PM 76.1 °F - 71.8 °F 86% 29.94 in 10.0 mi Calm Calm - N/A   Clear
10:55 PM 76.5 °F - 72.0 °F 86% 29.94 in 10.0 mi Calm Calm - N/A   Scattered Clouds
11:15 PM 76.1 °F - 71.6 °F 86% 29.94 in 10.0 mi SSW 5.8 mph - N/A   Clear
11:35 PM 75.6 °F - 71.6 °F 87% 29.95 in 10.0 mi SW 5.8 mph - N/A   Clear
11:55 PM 75.6 °F - 70.9 °F 85% 29.94 in 10.0 mi SW 5.8 mph - N/A   Clear